Location: Seattle
(47.6064°N, 122.3308°W)
Time: 09:26:22
(UTC-07:00)

RS-15 - Pass Details

Date: 10 April 2023
Orbit: 1885 x 2159 km, 64.8° (Epoch: 01 June)

Event Time Altitude Azimuth Distance (km) Brightness Sun altitude
Rises 22:43:18 0° 319° (NW) 5,650 11.8 -25.4°
Reaches altitude 10° 22:46:49 10° 321° (NW) 4,621 11.0 -25.8°
Maximum altitude 22:58:55 77° 49° (NE) 2,092 8.0 -27.0°
Enters shadow 23:03:49 42° 126° (SE) 2,658 8.2 -27.5°
